Location: A�t �Alizem
(31.2076°N, 8.7872°W)
Time: 06:23:19
(UTC+00:00)

X-37B - Pass Details

Date: 27 November 2020
Orbit: 383 x 391 km, 45.1° (Epoch: 22 January)

Event Time Altitude Azimuth Distance (km) Brightness Sun altitude
Rises 17:55:27 0° 237° (WSW) 2,245 6.6 -5.3°
Reaches altitude 10° 17:57:30 10° 239° (WSW) 1,396 5.2 -5.7°
Maximum altitude 18:00:38 73° 325° (NW) 403 0.7 -6.3°
Drops below altitude 10° 18:03:48 10° 50° (NE) 1,406 2.8 -7.0°
Enters shadow 18:04:07 - 51° (NE) 1,538 3.0 -7.0°
